GW1886 Weather Reports


time (UTC)temp
C
wind
direction
speed
KPH
gust
KPH
rain 1hr
cm
rain 24hr
cm
rain mn
cm
humidity
%
barometer
mb
20260506044538 18 326 3.2 14.5 0.00 0.00 0.00 47 1014.9
20260506043039 19 333 8.0 14.5 0.00 0.00 0.00 46 1014.6
20260506041549 20 315 6.4 19.3 0.00 0.00 0.00 45 1014.4
20260506040033 20 333 8.0 19.3 0.00 0.00 0.00 46 1014.0
20260506034543 20 350 6.4 16.1 0.00 0.00 0.00 47 1013.8
20260506033050 21 340 4.8 9.7 0.00 0.00 0.00 45 1013.5
20260506031532 21 355 3.2 9.7 0.00 0.00 0.00 44 1013.3
20260506030032 22 307 4.8 16.1 0.00 0.00 0.00 43 1013.1
20260506024533 23 14 8.0 16.1 0.00 0.00 0.00 41 1013.0
20260506023033 23 341 9.7 17.7 0.00 0.00 0.00 38 1012.8
20260506021533 24 334 9.7 16.1 0.00 0.00 0.00 37 1012.7
20260506020032 25 293 11.3 19.3 0.00 0.00 0.00 35 1012.4
20260506014533 25 336 8.0 17.7 0.00 0.00 0.00 34 1012.4
20260506013049 25 322 8.0 20.9 0.00 0.00 0.00 35 1012.3
20260506011541 26 333 9.7 16.1 0.00 0.00 0.00 43 1012.1
20260506010035 26 0 1.6 14.5 0.00 0.00 0.00 44 1012.2
20260506004531 26 225 4.8 12.9 0.00 0.00 0.00 44 1012.2
20260506003034 25 0 0.0 16.1 0.00 0.00 0.00 46 1012.0
20260506001530 25 223 6.4 14.5 0.00 0.00 0.00 46 1012.1
20260506000036 25 221 4.8 14.5 0.00 0.00 0.00 48 1012.0
20260505234534 25 351 1.6 12.9 0.00 0.00 0.00 48 1012.1
20260505233033 24 231 4.8 16.1 0.00 0.00 0.00 48 1012.2
20260505231531 24 175 4.8 16.1 0.00 0.00 0.00 51 1012.3
20260505230052 23 117 3.2 16.1 0.00 0.00 0.00 49 1012.5
20260505224535 23 205 1.6 20.9 0.00 0.00 0.00 49 1012.9
20260505223039 23 207 1.6 11.3 0.00 0.00 0.00 51 1013.1
20260505221534 23 157 3.2 16.1 0.00 0.00 0.00 48 1013.2
20260505220047 22 194 1.6 14.5 0.00 0.00 0.00 50 1013.3
20260505214536 22 242 8.0 16.1 0.00 0.00 0.00 51 1013.5
20260505213034 22 328 3.2 12.9 0.00 0.00 0.00 50 1013.6
20260505211546 22 51 6.4 14.5 0.00 0.00 0.00 52 1013.7
20260505210035 22 345 4.8 12.9 0.00 0.00 0.00 51 1013.7
20260505204536 21 197 4.8 16.1 0.00 0.00 0.00 54 1014.1
20260505203033 21 298 1.6 14.5 0.00 0.00 0.00 55 1014.2
20260505201532 20 206 4.8 14.5 0.00 0.00 0.00 59 1014.5
20260505200039 20 17 8.0 14.5 0.00 0.00 0.00 59 1014.7
20260505194530 18 0 0.0 12.9 0.00 0.00 0.00 58 1014.9
20260505193034 18 200 6.4 16.1 0.00 0.00 0.00 60 1015.1
20260505191541 18 286 3.2 11.3 0.00 0.00 0.00 60 1015.2
20260505190033 17 266 4.8 14.5 0.00 0.00 0.00 64 1015.2
20260505184533 17 157 3.2 11.3 0.00 0.00 0.00 64 1015.4
20260505183036 16 150 6.4 12.9 0.00 0.00 0.00 65 1015.5
20260505181541 16 163 4.8 16.1 0.00 0.00 0.00 67 1015.5
20260505180034 16 188 1.6 11.3 0.00 0.00 0.00 66 1015.2
20260505174533 15 154 3.2 12.9 0.00 0.00 0.00 70 1015.6
20260505173032 15 163 3.2 16.1 0.00 0.00 0.00 73 1015.6
20260505171535 15 260 8.0 16.1 0.00 0.00 0.00 71 1015.7
20260505170034 15 196 8.0 12.9 0.00 0.00 0.00 73 1015.8
20260505164533 15 164 8.0 12.9 0.00 0.00 0.00 77 1015.9
20260505163032 15 180 4.8 11.3 0.00 0.00 0.00 75 1015.9
20260505161540 14 0 1.6 8.0 0.00 0.00 0.00 76 1015.9
20260505153033 12 0 0.0 1.6 0.00 0.00 0.00 81 1015.9
20260505151534 12 0 0.0 1.6 0.00 0.00 0.00 83 1015.7
20260505124533 9 10 8.0 12.9 0.00 0.00 0.00 91 1014.5
20260505123035 9 5 1.6 4.8 0.00 0.00 0.00 92 1014.4
20260505121538 8 0 1.6 4.8 0.00 0.00 0.00 92 1014.2
20260505120033 8 25 0.0 3.2 0.00 0.00 0.00 92 1014.2
20260505114538 8 0 0.0 0.0 0.00 0.00 0.00 92 1014.1
20260505113031 8 0 0.0 1.6 0.00 0.00 0.00 92 1014.2
20260505111534 8 0 0.0 1.6 0.00 0.00 0.00 91 1014.0
20260505101542 10 12 3.2 6.4 0.00 0.00 0.00 86 1013.7
20260505100035 11 0 0.0 3.2 0.00 0.00 0.00 85 1013.6
20260505094532 11 78 0.0 3.2 0.00 0.00 0.00 84 1013.7
20260505093034 11 0 0.0 4.8 0.00 0.00 0.00 83 1013.7
20260505091535 12 351 1.6 4.8 0.00 0.00 0.00 83 1013.7
20260505090043 12 0 0.0 1.6 0.00 0.00 0.00 81 1013.7
20260505084550 12 0 0.0 4.8 0.00 0.00 0.00 80 1013.7
20260505083041 13 309 1.6 6.4 0.00 0.00 0.00 79 1013.7
20260505081532 13 323 3.2 9.7 0.00 0.00 0.00 78 1013.7
20260505080041 13 323 0.0 8.0 0.00 0.00 0.00 78 1013.6
20260505074531 13 0 3.2 9.7 0.00 0.00 0.00 78 1013.4
20260505073036 13 325 3.2 12.9 0.00 0.00 0.00 77 1013.2
20260505071543 14 286 4.8 14.5 0.00 0.00 0.00 76 1013.2
20260505070034 14 0 4.8 14.5 0.00 0.00 0.00 75 1013.1
20260505064541 15 343 4.8 12.9 0.00 0.00 0.00 74 1012.9
20260505063038 15 311 0.0 8.0 0.00 0.00 0.00 73 1012.8
20260505061536 15 313 4.8 12.9 0.00 0.00 0.00 72 1012.7
20260505060037 15 325 3.2 6.4 0.00 0.00 0.00 73 1012.5
20260505054536 16 360 0.0 8.0 0.00 0.00 0.00 71 1012.2
20260505053039 16 294 4.8 11.3 0.00 0.00 0.00 70 1012.2
20260505051535 16 242 1.6 8.0 0.00 0.00 0.00 70 1012.1